星链-3802 (STARLINK-3802 )

导读

STARLINK-3802是美国太空探索技术公司(SpaceX)星链计划中的卫星,于2022年4月21日发射入轨,属于低轨通信卫星,旨在为全球提供宽带互联网服务。作为星链星座的组成部分,它参与构建全球覆盖的卫星互联网网络,推动卫星通信服务的普及,不过也引发了天文观测等领域的相关讨论。

Basic Information
目录编号:
52286
目录名称:
STARLINK-3802
国际标识:
2022-041AB
轨道中心:
EARTH
卫星名称:
星链-3802
卫星全名:
星链-3802 (STARLINK-3802 )
卫星状态:
在轨 (已飞行1605 天)
发射日期:
2022-04-21 UTC
国别 :
美国 (US)
星等 :
--
This satellite is enrolled in the Space Conjunction Data Service (SCDS) and the current flight risk assessment level is: No High Risk
Orbit Information
数据来源 国际轨道数据 AOE轨道数据
星历时间 2026-09-12T12:24:55+0800
3小时前
查看轨道信息
2026-09-06T07:00:00+0800
6天前
查看轨道信息
半长轴 6840.899km 6840.873km
偏心率 0.0001255 0.0001163
轨道倾角 53.160° 53.160°
近地点辐角 101.470° 70.372°
升交点赤经 330.257° 359.363°
平近点角 258.645° 81.323°
近地点 461.903km 461.94km
远地点 463.621km 463.532km
周期 93.849分钟 93.848分钟
每日圈数 15.343804 15.34389
Detailed Information
固有亮度:
5
最大亮度:
2.5
卫星平台:
Starlink v1.5
覆盖范围:
全球
运营商:
太空探索技术公司
运营商所在国:
美国
制造商(研发单位):
太空探索技术公司
制造商所在国:
美国
使用方式:
暂无
Satellite Introduction
星链(Starlink)计划是由太空探索技术公司(SpaceX)提出的一个巨型低轨卫星互联网星座项目,计划在2019年至2024年间在太空搭建由约1.2万颗卫星组成的“星链”网络,其中1584颗将部署在地球上空550千米处的近地轨道,并从2020年开始工作。该卫星仍在工作。
2D Orbit Map
3D Orbit Map
Orbit Altitude Analysis Chart
Orbit Inclination Analysis Chart
Orbit Comprehensive Analysis Chart
View Comprehensive Chart
Conjunction Data List
Event ID Objects TCA Miss Dist (km) Collision Risk Probability Collision Risk Index (CRI) Action
CDM_260913-181305-228606-804121
2026-09-13T
18:13:18+0000
0.804 km
远距离
3.401087E-5 中风险 0.66
CDM_260914-123505-228606-551522
2026-09-14T
12:35:47+0000
1.423 km
极远距离
6.867968E-6 低风险 0.52
CDM_260914-024905-228606-804122
2026-09-14T
02:49:10+0000
1.318 km
极远距离
6.284004E-6 低风险 0.51
CDM_260914-140905-228606-551521
2026-09-14T
14:09:35+0000
1.469 km
极远距离
6.185124E-6 低风险 0.51
CDM_260914-042205-228606-804121
2026-09-14T
04:22:57+0000
1.985 km
极远距离
1.852095E-6 低风险 0.4
CDM_260914-203505-228606-276821
2026-09-14T
20:35:14+0000
2.722 km
极远距离
1.35084E-6 低风险 0.38
CDM_260913-163905-228606-804122
2026-09-13T
16:39:31+0000
2.685 km
极远距离
1.026827E-6 低风险 0.35
CDM_260913-224005-228606-670321
2026-09-13T
22:40:54+0000
2.619 km
极远距离
9.50413E-7 极低风险 0.35
Miss Distance Evolution Trend with All Objects
Collision Probability Evolution Trend with All Objects